Location: Saint-Maurice-d�Ard�che
(44.5216°N, 4.4002°E)
Time: 09:32:24
(UTC+00:00)

CZ-2C R/B - Visible Passes

Search period start: 13 August 2020 00:00
Search period end: 23 August 2020 00:00
Orbit: 703 x 909 km, 98.1° (Epoch: 12 August)

Date Brightness Start Highest point End Pass type
(mag) Time Alt. Az. Time Alt. Az. Time Alt. Az.
13 Aug 4.9 19:36:27 10° SSW 19:40:35 29° W 19:44:43 10° NW visible
16 Aug 5.6 20:03:01 10° SW 20:06:01 17° W 20:09:02 10° NW visible
17 Aug 4.9 19:36:49 10° SSW 19:40:53 28° W 19:44:59 10° NW visible
18 Aug 3.9 19:11:16 10° S 19:15:50 48° W 19:20:28 10° NNW visible
20 Aug 5.6 20:03:24 10° SW 20:06:20 16° W 20:09:16 10° NW visible
21 Aug 5.0 19:37:09 10° SSW 19:41:11 27° W 19:45:16 10° NW visible
22 Aug 4.0 19:11:35 10° S 19:16:07 47° W 19:20:47 10° NNW visible
